OpenBCM V1.13 (Linux)

Packet Radio Mailbox

DB0FHN

[JN59NK Nuernberg]

 Login: GUEST





  
I6KZR  > KEPLER   18.01.03 15:40l 1474 Lines 39570 Bytes #999 (0) @ WW
BID : 18910_IK6WID
Read: DB0FHN GUEST
Subj: Old Istantrak Keplerians #018
Path: DB0FHN<DB0RGB<DB0MRW<DB0PV<OE2XOM<OE5XBL<OE3XSR<OK0PBX<OK0PRG<OK0PHK<
      OK0NAG<OK0PPL<RZ6HXA<SP7MGD<IK6PYS<I6ZLO<IK6WID
Sent: 030118/1351Z @:IK6WID.#AP.IMAR.ITA.EU #:18910 [MONTE URANO]  FBB7.00i
From: I6KZR@IK6WID.#AP.IMAR.ITA.EU
To  : KEPLER@WW


Satellite: OSCAR 7
Catalog number: 07530
Epoch time:      103015.69405182
Element set:     153 
Inclination:      101.7674 deg
RA of node:        63.7910 deg
Eccentricity:    0.0012521
Arg of perigee:   143.7522 deg
Mean anomaly:     216.4399 deg
Mean motion:   12.53563621 rev/day
Decay rate:   -2.9000E-007 rev/day^2
Epoch rev:           28894
Checksum:              288

Satellite: GOES 2
Catalog number: 10061
Epoch time:      103005.42586557
Element set:     46 
Inclination:       14.1214 deg
RA of node:        13.7857 deg
Eccentricity:    0.0013992
Arg of perigee:   196.1981 deg
Mean anomaly:     163.7785 deg
Mean motion:    0.99397401 rev/day
Decay rate:   -2.7099E-006 rev/day^2
Epoch rev:            3839
Checksum:              317

Satellite: GOES 3
Catalog number: 10953
Epoch time:      103017.02644443
Element set:     893 
Inclination:       13.3952 deg
RA of node:        17.4811 deg
Eccentricity:    0.0004573
Arg of perigee:   338.3099 deg
Mean anomaly:      21.7112 deg
Mean motion:    1.00278197 rev/day
Decay rate:   -8.2999E-007 rev/day^2
Epoch rev:            4317
Checksum:              297

Satellite: GOES 6
Catalog number: 14050
Epoch time:      103016.14732176
Element set:     414 
Inclination:       10.3570 deg
RA of node:        35.6987 deg
Eccentricity:    0.0003031
Arg of perigee:   351.7582 deg
Mean anomaly:       8.3301 deg
Mean motion:    1.00292235 rev/day
Decay rate:    6.7000E-007 rev/day^2
Epoch rev:           13030
Checksum:              233

Satellite: OSCAR 10
Catalog number: 14129
Epoch time:      103013.46521539
Element set:     911 
Inclination:       25.8708 deg
RA of node:       170.2888 deg
Eccentricity:    0.6042226
Arg of perigee:   318.8494 deg
Mean anomaly:       8.5240 deg
Mean motion:    2.05869613 rev/day
Decay rate:   -3.1300E-006 rev/day^2
Epoch rev:           11932
Checksum:              367

Satellite: OSCAR 11 (UoSA
Catalog number: 14781
Epoch time:      103018.19740140
Element set:     47 
Inclination:       98.1128 deg
RA of node:       351.8914 deg
Eccentricity:    0.0009122
Arg of perigee:   319.8416 deg
Mean anomaly:      40.2121 deg
Mean motion:   14.77899807 rev/day
Decay rate:    2.4009E-005 rev/day^2
Epoch rev:            1160
Checksum:              394

Satellite: NOAA 10
Catalog number: 16969
Epoch time:      103017.92692397
Element set:     630 
Inclination:       98.7265 deg
RA of node:        12.1094 deg
Eccentricity:    0.0012500
Arg of perigee:   175.3696 deg
Mean anomaly:     184.7602 deg
Mean motion:   14.27051387 rev/day
Decay rate:    2.8500E-006 rev/day^2
Epoch rev:           84939
Checksum:              326

Satellite: GOES 7
Catalog number: 17561
Epoch time:      103013.52827387
Element set:     810 
Inclination:        7.5470 deg
RA of node:        55.7264 deg
Eccentricity:    0.0004064
Arg of perigee:   288.6625 deg
Mean anomaly:     149.4031 deg
Mean motion:    1.00317770 rev/day
Decay rate:    1.1600E-006 rev/day^2
Epoch rev:            4138
Checksum:              275

Satellite: COSMOS 1861
Catalog number: 18129
Epoch time:      103015.90836747
Element set:     199 
Inclination:       82.9238 deg
RA of node:       171.4425 deg
Eccentricity:    0.0011208
Arg of perigee:   328.1051 deg
Mean anomaly:      31.9422 deg
Mean motion:   13.72697324 rev/day
Decay rate:    9.2999E-007 rev/day^2
Epoch rev:           77989
Checksum:              355

Satellite: EUTELSAT 1-F4 
Catalog number: 18351
Epoch time:      103016.60000000
Element set:     28 
Inclination:        7.0610 deg
RA of node:        58.7710 deg
Eccentricity:    0.0010065
Arg of perigee:   125.6900 deg
Mean anomaly:     263.2870 deg
Mean motion:    0.98688648 rev/day
Decay rate:   -1.3400E-006 rev/day^2
Epoch rev:            4235
Checksum:              253

Satellite: NOAA 11
Catalog number: 19531
Epoch time:      103017.96423409
Element set:     468 
Inclination:       98.9074 deg
RA of node:        99.4458 deg
Eccentricity:    0.0011080
Arg of perigee:   294.6376 deg
Mean anomaly:      65.3641 deg
Mean motion:   14.14522283 rev/day
Decay rate:    3.0100E-006 rev/day^2
Epoch rev:           73833
Checksum:              309

Satellite: ASTRA 1A
Catalog number: 19688
Epoch time:      103014.99740913
Element set:     557 
Inclination:        1.3098 deg
RA of node:        95.0777 deg
Eccentricity:    0.0004052
Arg of perigee:   195.2086 deg
Mean anomaly:     188.0162 deg
Mean motion:    1.00274118 rev/day
Decay rate:    5.3999E-007 rev/day^2
Epoch rev:            3185
Checksum:              423

Satellite: OSCAR 14 (UOSA
Catalog number: 20437
Epoch time:      103017.54977638
Element set:     143 
Inclination:       98.2780 deg
RA of node:        62.6864 deg
Eccentricity:    0.0010229
Arg of perigee:   301.5696 deg
Mean anomaly:      58.4494 deg
Mean motion:   14.31226446 rev/day
Decay rate:    2.1599E-006 rev/day^2
Epoch rev:           67791
Checksum:              339

Satellite: OSCAR 15 (UOSA
Catalog number: 20438
Epoch time:      103017.75600280
Element set:     763 
Inclination:       98.2521 deg
RA of node:        52.1455 deg
Eccentricity:    0.0009416
Arg of perigee:   313.1617 deg
Mean anomaly:      46.8776 deg
Mean motion:   14.30188817 rev/day
Decay rate:    1.6100E-006 rev/day^2
Epoch rev:           67761
Checksum:              409

Satellite: OSCAR 16 (PACS
Catalog number: 20439
Epoch time:      103016.17193492
Element set:     838 
Inclination:       98.3230 deg
RA of node:        72.8602 deg
Eccentricity:    0.0010514
Arg of perigee:   311.9591 deg
Mean anomaly:      48.0702 deg
Mean motion:   14.31457712 rev/day
Decay rate:    2.5899E-006 rev/day^2
Epoch rev:           67775
Checksum:              315

Satellite: OSCAR 17 (DOVE
Catalog number: 20440
Epoch time:      103015.74801290
Element set:     720 
Inclination:       98.3430 deg
RA of node:        76.2682 deg
Eccentricity:    0.0010773
Arg of perigee:   312.4728 deg
Mean anomaly:      47.5545 deg
Mean motion:   14.31733637 rev/day
Decay rate:    2.6099E-006 rev/day^2
Epoch rev:           67776
Checksum:              311

Satellite: OSCAR 18 (WEBE
Catalog number: 20441
Epoch time:      103018.18160395
Element set:     990 
Inclination:       98.3402 deg
RA of node:        77.8394 deg
Eccentricity:    0.0011149
Arg of perigee:   305.9497 deg
Mean anomaly:      54.0652 deg
Mean motion:   14.31540685 rev/day
Decay rate:    2.5700E-006 rev/day^2
Epoch rev:           67809
Checksum:              317

Satellite: OSCAR 19 (LUSA
Catalog number: 20442
Epoch time:      103018.23348628
Element set:     942 
Inclination:       98.3539 deg
RA of node:        80.8569 deg
Eccentricity:    0.0011605
Arg of perigee:   304.8086 deg
Mean anomaly:      55.2005 deg
Mean motion:   14.31703286 rev/day
Decay rate:    2.6099E-006 rev/day^2
Epoch rev:           67815
Checksum:              319

Satellite: JAS 1B (FUJI 2
Catalog number: 20480
Epoch time:      103015.94600957
Element set:     464 
Inclination:       99.0412 deg
RA of node:       345.0237 deg
Eccentricity:    0.0540894
Arg of perigee:    80.0077 deg
Mean anomaly:     286.1595 deg
Mean motion:   12.83328471 rev/day
Decay rate:    3.4999E-007 rev/day^2
Epoch rev:           60620
Checksum:              318

Satellite: HST
Catalog number: 20580
Epoch time:      103018.04399382
Element set:     301 
Inclination:       28.4665 deg
RA of node:       242.8562 deg
Eccentricity:    0.0003741
Arg of perigee:   291.6395 deg
Mean anomaly:     189.7463 deg
Mean motion:   14.97686798 rev/day
Decay rate:    2.8270E-005 rev/day^2
Epoch rev:           49790
Checksum:              344

Satellite: EUTELSAT 2-F1
Catalog number: 20777
Epoch time:      103016.98027935
Element set:     17 
Inclination:        3.4236 deg
RA of node:        84.8341 deg
Eccentricity:    0.0001209
Arg of perigee:   164.5241 deg
Mean anomaly:     295.5979 deg
Mean motion:    1.00271905 rev/day
Decay rate:   -8.6000E-007 rev/day^2
Epoch rev:            2577
Checksum:              292

Satellite: FENGYUN 1B
Catalog number: 20788
Epoch time:      103018.20718995
Element set:     860 
Inclination:       99.0241 deg
RA of node:         0.7022 deg
Eccentricity:    0.0015407
Arg of perigee:   318.7754 deg
Mean anomaly:      41.2247 deg
Mean motion:   14.02140457 rev/day
Decay rate:    8.1000E-007 rev/day^2
Epoch rev:           63314
Checksum:              270

Satellite: EUTELSAT 2-F2
Catalog number: 21056
Epoch time:      103015.13799191
Element set:     610 
Inclination:        2.6484 deg
RA of node:        88.2265 deg
Eccentricity:    0.0002557
Arg of perigee:   220.6689 deg
Mean anomaly:     263.3892 deg
Mean motion:    1.00276352 rev/day
Decay rate:    1.3699E-006 rev/day^2
Epoch rev:            3153
Checksum:              296

Satellite: INFORMATOR 1
Catalog number: 21087
Epoch time:      103015.93787762
Element set:     598 
Inclination:       82.9412 deg
RA of node:       342.3085 deg
Eccentricity:    0.0035746
Arg of perigee:   346.9738 deg
Mean anomaly:      13.0488 deg
Mean motion:   13.74922550 rev/day
Decay rate:    9.0999E-007 rev/day^2
Epoch rev:           60026
Checksum:              440

Satellite: COSMOS 2123
Catalog number: 21089
Epoch time:      103016.56241514
Element set:     483 
Inclination:       82.9207 deg
RA of node:       205.8619 deg
Eccentricity:    0.0030456
Arg of perigee:    20.4392 deg
Mean anomaly:     339.7974 deg
Mean motion:   13.74400391 rev/day
Decay rate:    6.1999E-007 rev/day^2
Epoch rev:           59925
Checksum:              331

